www.pogodaiklimat.ru

Погода и климат >> Архив погоды >> Швейцария >> Zurich


АРХИВ ПОГОДЫ в Zurich

Время (UTC), дата Ветер
(напр.,м/с)
 
Видим.   Явления Облачность Т
(С)
Тd
(С)
f
(%)
Тe
(С)
Тes
(С)
Комфортность P
(гПа)
Po
(гПа)
Тmin
(С)
Tmax
(С)
R
(мм)
R24
(мм)
S
(см)
07 11.08 СЗ 1
{2}
н/о н/о +11.4 +10.4 94 +11 +11 очень
холодно
1017.5 952.3
08 11.08 З 1
{2}
н/о н/о +12.1 +10.9 92 +12 +12 очень
холодно
1017.2 952.2
09 11.08 З 2
{4}
н/о н/о +11.9 +10.4 91 +11 +11 очень
холодно
1018.1 953.0
10 11.08 СЗ 2
{5}
н/о н/о +12.7 +10.4 86 +12 +12 очень
холодно
1018.0 953.1
11 11.08 З 2
{5}
н/о н/о +13.0 +10.8 86 +13 +13 очень
холодно
1018.0 953.1
12 11.08 З 4
{6}
н/о 10/0
[]
+12.6 +10.3 86 +11 +17 очень
холодно
1018.3 953.3
13 11.08 З 4
{6}
н/о н/о +12.6 +11.0 90 +11 +11 очень
холодно
1018.5 953.5 0.3
14 11.08 ЮЗ 2
{6}
н/о н/о +12.1 +10.8 92 +11 +11 очень
холодно
1019.0 953.9 0.2
15 11.08 ЮЗ 3
{6}
н/о н/о +11.9 +10.7 92 +10 +10 очень
холодно
1019.3 954.1 0.4
16 11.08 ЮЗ 3
{5}
н/о н/о +11.6 +10.9 95 +10 +10 очень
холодно
1019.6 954.3 1
17 11.08 ЮЗ 3
{5}
н/о н/о +11.5 +10.7 95 +10 +10 очень
холодно
1019.8 954.5 3
18 11.08 Ю 3
{6}
н/о 10/0
[]
+11.5 +10.7 95 +10 +10 очень
холодно
1020.1 954.8 +13.0 0.5
19 11.08 ЮЗ 3
{6}
н/о н/о +11.4 +10.6 95 +10 +10 очень
холодно
1020.5 955.1 0.1
20 11.08 ЮЗ 3
{6}
н/о н/о +11.4 +10.4 94 +9 +9 очень
холодно
1020.8 955.4
21 11.08 ЮЗ 4
{6}
н/о н/о +11.4 +10.1 92 +9 +9 очень
холодно
1020.8 955.4
22 11.08 ЮЗ 3
{5}
н/о н/о +11.7 +10.2 91 +10 +10 холодно 1021.1 955.7
23 11.08 ЮЗ 4
{6}
н/о н/о +11.7 +10.0 89 +10 +10 холодно 1021.2 955.8
00 12.08 ЮЗ 4
{7}
н/о н/о +11.9 +9.8 87 +10 +10 холодно 1020.9 955.6
01 12.08 ЮЗ 3
{5}
н/о н/о +12.0 +9.8 86 +11 +11 холодно 1021.1 955.8
02 12.08 ЮЗ 3
{5}
н/о н/о +12.0 +9.7 86 +11 +11 холодно 1021.1 955.8
03 12.08 ЮЗ 2
{5}
н/о н/о +11.3 +10.4 94 +10 +10 холодно 1021.2 955.7 0.4
04 12.08 ЮЗ 3
{5}
н/о н/о +11.4 +10.0 91 +10 +10 холодно 1021.1 955.7 0.3
05 12.08 ЮЗ 3
{6}
н/о н/о +11.3 +10.3 94 +10 +10 холодно 1021.3 955.8 1
06 12.08 ЮЗ 3 н/о н/о +11.3 +10.3 94 +9 +9 холодно 1021.7 956.2 +11.0 2
07 12.08 ЮЗ 3
{5}
н/о н/о +11.7 +10.8 94 +10 +10 очень
холодно
1022.0 956.6 0.1
08 12.08 ЮЗ 3
{7}
н/о н/о +12.5 +10.8 89 +11 +11 очень
холодно
1022.1 956.9
09 12.08 ЮЗ 4
{7}
н/о н/о +14.3 +12.0 86 +13 +13 холодно 1022.0 957.2
10 12.08 ЮЗ 4
{9}
н/о н/о +15.6 +11.9 79 +15 +15 очень
холодно
1021.6 957.1
11 12.08 ЮЗ 4
{7}
н/о н/о +16.7 +11.2 70 +16 +16 очень
холодно
1021.3 957.1
12 12.08 ЮЗ 4
{9}
н/о 8/0
[]
+17.6 +11.7 68 +17 +23 холодно 1021.0 957.0
13 12.08 ЮЗ 3
{8}
н/о н/о +18.5 +10.5 60 +19 +19 холодно 1020.6 956.8
14 12.08 З 3
{7}
н/о н/о +18.9 +10.3 57 +20 +20 прохладно 1020.4 956.7
15 12.08 З 3
{9}
н/о н/о +19.0 +10.6 58 +20 +20 по сезону 1020.4 956.7
16 12.08 З 3
{6}
н/о н/о +18.2 +10.8 62 +19 +19 холодно 1020.8 956.9
17 12.08 СЗ 2
{4}
н/о н/о +17.5 +10.5 63 +18 +18 прохладно 1020.9 956.9
18 12.08 С 1
{9}
н/о 8/0
[]
+16.4 +11.0 70 +17 +17 прохладно 1021.3 957.0 +19.0
19 12.08 СЗ 1
{2}
н/о н/о +15.5 +11.7 78 +17 +17 прохладно 1021.8 957.3
20 12.08 СЗ 1
{2}
н/о н/о +15.0 +11.9 82 +16 +16 прохладно 1022.3 957.6
21 12.08 В 1
{2}
н/о н/о +14.0 +11.4 84 +15 +15 прохладно 1022.3 957.4
22 12.08 Ю 1
{2}
н/о н/о +14.4 +11.6 83 +15 +15 по сезону 1022.1 957.3
23 12.08 штиль 0
{2}
н/о н/о +14.2 +11.7 85 +14 +14 прохладно 1022.1 957.2
00 13.08 Ю 1
{2}
н/о н/о +13.9 +11.3 84 +14 +14 прохладно 1021.9 957.0
01 13.08 ЮВ 1
{2}
н/о н/о +13.7 +12.1 90 +15 +15 по сезону 1021.9 956.9
02 13.08 Ю 1
{2}
н/о н/о +14.0 +12.2 89 +15 +15 по сезону 1021.6 956.7
03 13.08 штиль 0
{2}
н/о н/о +13.6 +12.3 92 +13 +13 прохладно 1021.7 956.7
04 13.08 Ю 1
{3}
н/о н/о +13.9 +12.6 92 +15 +15 по сезону 1021.6 956.7
05 13.08 ЮВ 1
{2}
н/о н/о +14.3 +12.8 91 +15 +15 по сезону 1021.5 956.7
06 13.08 штиль 0 н/о н/о +14.8 +12.9 88 +14 +14 по сезону 1021.4 956.7 +13.6
07 13.08 ЮЗ 1
{2}
н/о н/о +15.6 +13.4 87 +17 +17 прохладно 1021.6 957.1
08 13.08 ЮЗ 1
{2}
н/о н/о +16.8 +11.3 70 +18 +18 по сезону 1021.4 957.2
09 13.08 ЮЗ 1
{4}
н/о н/о +17.8 +10.9 64 +19 +19 по сезону 1021.2 957.2
10 13.08 З 2
{4}
н/о н/о +19.8 +11.8 60 +22 +22 комфорт 1020.6 957.1
11 13.08 СЗ 2
{4}
н/о н/о +20.2 +11.0 55 +23 +23 комфорт 1020.1 956.7
12 13.08 З 2
{5}
н/о 3/0
[]
+22.2 +12.4 54 +25 +39 комфорт 1019.1 956.2
13 13.08 З 2
{5}
н/о н/о +23.1 +12.7 52 +26 +26 жарко 1018.3 955.7
14 13.08 СЗ 2
{5}
н/о н/о +23.9 +12.9 50 +26 +26 жарко 1017.9 955.5
15 13.08 СЗ 1
{5}
н/о н/о +23.7 +12.7 50 +26 +26 жарко 1017.9 955.4
16 13.08 СВ 2
{4}
н/о н/о +23.7 +12.3 49 +26 +26 жарко 1017.8 955.3
17 13.08 С 2
{4}
н/о н/о +23.0 +12.2 51 +26 +26 жарко 1018.0 955.4
18 13.08 С 1
{5}
н/о 1/0
[]
+20.8 +14.2 66 +25 +25 комфорт 1018.7 955.5 +24.1
19 13.08 С 1
{2}
н/о н/о +19.7 +13.7 68 +23 +23 комфорт 1019.1 955.7
20 13.08
{3}
н/о н/о +18.8 +13.3 70 1019.7 956.0
21 13.08
{3}
н/о н/о +17.8 +13.5 76 1019.9 956.0
22 13.08 С 1
{4}
н/о н/о +16.9 +13.3 79 +18 +18 по сезону 1020.0 955.9
23 13.08 СВ 2
{4}
н/о н/о +16.4 +13.5 83 +17 +17 по сезону 1019.9 955.7
00 14.08 С 1
{4}
н/о н/о +15.9 +13.5 86 +17 +17 по сезону 1019.9 955.6
01 14.08 В 1
{2}
н/о н/о +15.0 +13.5 91 +15 +15 по сезону 1019.8 955.3
02 14.08 СВ 2
{4}
н/о н/о +15.4 +13.7 90 +15 +15 по сезону 1019.6 955.2
03 14.08 СВ 1
{4}
н/о н/о +14.2 +13.3 94 +15 +15 по сезону 1019.8 955.1
04 14.08 СВ 2
{3}
н/о н/о +14.6 +13.5 93 +14 +14 по сезону 1019.7 955.1
05 14.08
{2}
н/о н/о +14.7 +13.6 93 1019.9 955.3
06 14.08 штиль 0 н/о н/о +15.2 +14.1 93 +15 +15 по сезону 1020.0 955.5 +14.1
07 14.08 Ю 1
{2}
н/о н/о +16.8 +14.7 87 +18 +18 прохладно 1019.8 955.7
08 14.08 ЮЗ 1
{2}
н/о н/о +18.0 +14.5 80 +20 +20 по сезону 1019.5 955.7
09 14.08 Ю 2
{3}
н/о н/о +19.7 +14.8 73 +22 +22 комфорт 1019.2 955.8
10 14.08 ЮВ 1
{3}
н/о н/о +21.7 +16.0 70 +25 +25 комфорт 1018.7 955.7
11 14.08 Ю 2
{5}
н/о н/о +23.6 +15.7 61 +27 +27 жарко 1018.1 955.6
12 14.08 Ю 2
{5}
н/о 1/0
[]
+24.6 +14.9 55 +27 +43 жарко 1017.6 955.3
13 14.08 З 2
{4}
н/о н/о +25.9 +14.7 50 +28 +28 жарко 1017.1 955.1
14 14.08 ЮЗ 2
{5}
н/о н/о +25.7 +13.5 47 +28 +28 жарко 1016.7 954.7
15 14.08 ЮЗ 2
{5}
н/о н/о +26.5 +13.8 46 +29 +29 жарко 1016.1 954.3
16 14.08 Ю 2
{5}
н/о н/о +26.1 +13.6 46 +28 +28 жарко 1016.0 954.1
17 14.08 Ю 2
{4}
н/о н/о +25.4 +13.9 49 +28 +28 жарко 1015.9 953.9
18 14.08 Ю 2
{5}
н/о ясно +24.1 +14.9 56 +27 +27 жарко 1016.2 953.9 +27.1
19 14.08 ЮВ 2
{2}
н/о н/о +21.9 +15.9 69 +26 +26 душно 1016.9 954.1
20 14.08 ЮВ 1
{3}
н/о н/о +21.7 +14.6 64 +25 +25 комфорт 1017.5 954.6
21 14.08 В 1
{3}
н/о н/о +20.4 +14.3 68 +24 +24 комфорт 1017.9 954.7
22 14.08 Ю 1
{2}
н/о н/о +19.7 +16.4 81 +24 +24 комфорт 1018.2 954.8
23 14.08 В 1
{2}
н/о н/о +19.1 +16.5 85 +22 +22 комфорт 1018.3 954.8
00 15.08 ЮВ 1
{3}
н/о н/о +18.4 +16.4 88 +21 +21 комфорт 1018.5 954.8
01 15.08 ЮВ 1
{2}
н/о н/о +18.0 +16.1 89 +19 +19 тепло 1018.4 954.6
02 15.08 Ю 1
{3}
н/о н/о +18.2 +15.5 84 +20 +20 тепло 1018.6 954.9
03 15.08 Ю 1
{3}
н/о н/о +17.6 +15.4 87 +19 +19 тепло 1018.9 955.0
04 15.08 С 1
{1}
н/о н/о +17.5 +15.4 87 +19 +19 тепло 1019.0 955.1
05 15.08 ЮВ 1
{2}
н/о н/о +17.6 +15.2 86 +19 +19 тепло 1019.3 955.4
06 15.08 Ю 2 н/о н/о +17.8 +14.6 82 +19 +19 тепло 1019.3 955.4 +17.1
07 15.08 Ю 1
{3}
н/о н/о +19.0 +14.3 74 +22 +22 комфорт 1019.1 955.5
08 15.08 З 1
{2}
н/о н/о +22.0 +14.9 64 +25 +25 комфорт 1018.4 955.5
09 15.08 ЮЗ 1
{3}
н/о н/о +24.0 +14.8 56 +27 +27 жарко 1017.7 955.3
10 15.08 ЮЗ 1
{3}
н/о н/о +25.3 +14.9 53 +28 +28 жарко 1017.4 955.3
11 15.08 З 1
{3}
н/о н/о +26.5 +12.5 42 +28 +28 жарко 1017.1 955.3
12 15.08 З 4
{9}
н/о 3/0
[]
+28.2 +14.4 43 +30 +39 жарко 1016.8 955.3
13 15.08 ЮЗ 5
{9}
н/о н/о +28.8 +14.6 42 +31 +31 жарко 1016.3 955.0
14 15.08 Ю 2
{8}
н/о н/о +26.5 +14.3 47 +29 +29 жарко 1016.4 954.6
15 15.08 ЮЗ 3
{9}
н/о н/о +28.7 +12.9 38 +30 +30 жарко 1015.7 954.4
16 15.08 З 6
{13}
н/о н/о +25.9 +14.0 48 +28 +28 жарко 1016.5 954.6
17 15.08 СЗ 2
{9}
н/о н/о +24.9 +13.9 50 +27 +27 жарко 1016.7 954.5
18 15.08 СЗ 2
{13}
н/о 8/0
[]
+24.1 +13.8 53 +26 +27 жарко 1017.4 955.0 +28.9
19 15.08 З 1
{5}
н/о н/о +22.9 +13.6 56 +26 +26 жарко 1018.4 955.7
20 15.08 В 1
{3}
н/о н/о +21.9 +13.9 60 +25 +25 комфорт 1019.2 956.2
21 15.08 СВ 2
{5}
н/о н/о +21.3 +14.0 63 +24 +24 комфорт 1019.1 956.0
22 15.08 Ю 1
{4}
н/о н/о +20.3 +15.3 73 +24 +24 комфорт 1019.4 956.1
23 15.08 З 3
{13}
н/о н/о +17.5 +14.9 85 +17 +17 по сезону 1022.1 958.0 1
00 16.08 ЮЗ 1
{13}
н/о н/о +16.5 +15.4 93 +17 +17 по сезону 1022.3 958.0 0.3
01 16.08 СВ 2
{4}
н/о н/о +16.5 +15.4 93 +17 +17 по сезону 1022.2 957.9
02 16.08 В 2
{4}
н/о н/о +16.3 +15.4 94 +17 +17 по сезону 1022.4 958.0
03 16.08 В 1
{4}
н/о н/о +16.6 +15.7 94 +17 +17 по сезону 1022.2 957.9 0.1
04 16.08 ЮВ 1
{2}
н/о н/о +16.7 +15.9 95 +18 +18 тепло 1021.9 957.6
05 16.08 штиль 0
{2}
н/о н/о +16.8 +15.9 94 +17 +17 тепло 1022.0 957.7 0.1
06 16.08 ЮВ 1 н/о н/о +17.4 +16.5 94 +19 +19 тепло 1022.1 958.0 +16.3
07 16.08 Ю 1
{2}
н/о н/о +17.7 +16.2 91 +19 +19 по сезону 1022.2 958.1
08 16.08 Ю 1
{3}
н/о н/о +19.0 +16.7 87 +22 +22 комфорт 1021.6 957.9
09 16.08 Ю 1
{3}
н/о н/о +21.3 +16.9 76 +25 +25 комфорт 1021.0 957.8
10 16.08 З 1
{3}
н/о н/о +23.1 +14.9 60 +27 +27 душно 1020.2 957.4
11 16.08 Ю 2
{4}
н/о н/о +24.9 +17.2 62 +29 +29 душно 1019.2 956.9
12 16.08 С 2
{5}
н/о н/о +25.0 +15.5 56 +28 +28 жарко 1019.0 956.7
13 16.08 ЮВ 1
{4}
н/о н/о +25.5 +14.7 51 +28 +28 жарко 1018.4 956.3
14 16.08 С 2
{5}
н/о н/о +26.2 +14.7 49 +29 +29 жарко 1018.0 956.0
15 16.08 СВ 1
{5}
н/о н/о +25.1 +14.9 53 +28 +28 жарко 1018.0 955.8
16 16.08 В 1
{3}
н/о н/о +24.2 +15.5 58 +27 +27 жарко 1018.3 955.9
17 16.08 СВ 2
{3}
н/о н/о +23.8 +15.4 59 +27 +27 жарко 1018.3 955.8
18 16.08 С 2
{5}
н/о 10/0
[]
+23.0 +16.4 66 +28 +28 душно 1018.5 955.8 +26.2
19 16.08 СВ 2
{3}
н/о н/о +21.4 +16.1 72 +25 +25 комфорт 1019.2 956.1
20 16.08 СВ 2
{3}
н/о н/о +20.1 +15.7 76 +23 +23 комфорт 1019.5 956.1
21 16.08 С 1
{3}
н/о н/о +19.7 +15.6 77 +23 +23 комфорт 1019.5 956.0
22 16.08 В 1
{2}
н/о н/о +20.1 +15.2 73 +24 +24 комфорт 1019.5 956.1
23 16.08 С 1
{1}
н/о н/о +20.0 +15.6 76 +24 +24 комфорт 1019.7 956.3
00 17.08 СВ 2
{5}
н/о н/о +19.0 +16.5 85 +21 +21 комфорт 1019.5 955.9 0.1
01 17.08 С 1
{5}
н/о н/о +18.1 +16.4 90 +20 +20 тепло 1019.2 955.4
02 17.08 СВ 1
{2}
н/о н/о +18.1 +16.2 89 +19 +19 тепло 1019.3 955.5
03 17.08 СВ 1
{5}
н/о н/о +17.2 +15.9 92 +18 +18 тепло 1019.5 955.5
04 17.08 штиль 0
{3}
н/о н/о +16.8 +15.7 93 +17 +17 тепло 1019.5 955.4
05 17.08 штиль 0
{1}
н/о н/о +17.1 +15.8 92 +17 +17 тепло 1019.6 955.6
06 17.08 штиль 0 н/о н/о +17.9 +16.6 92 +18 +18 тепло 1019.9 956.0 +16.8
07 17.08 Ю 1
{2}
н/о н/о +19.3 +17.1 87 +22 +22 комфорт 1019.8 956.2
08 17.08 ЮЗ 1
{2}
н/о н/о +21.1 +17.4 79 +25 +25 комфорт 1019.4 956.3
09 17.08 Ю 2
{4}
н/о н/о +22.1 +17.3 74 +27 +27 душно 1019.2 956.3
10 17.08 СЗ 2
{4}
н/о н/о +23.6 +16.8 66 +27 +27 жарко 1018.5 956.0
11 17.08 З 2
{5}
н/о н/о +25.7 +16.5 57 +29 +29 душно 1017.7 955.7
12 17.08 СЗ 2
{5}
н/о н/о +25.8 +16.5 56 +29 +29 душно 1017.4 955.4
13 17.08 ЮЗ 2
{6}
н/о н/о +26.8 +17.8 58 +31 +31 душно 1016.8 955.0
14 17.08 З 2
{5}
н/о н/о +27.0 +16.7 53 +31 +31 душно 1016.3 954.6
15 17.08 З 2
{6}
н/о н/о +26.1 +17.0 57 +30 +30 душно 1016.5 954.6
16 17.08 З 3
{6}
н/о н/о +26.5 +17.0 56 +30 +30 душно 1016.6 954.8
17 17.08 СЗ 3
{6}
н/о н/о +25.6 +16.6 58 +29 +29 душно 1017.1 955.1
18 17.08 С 1
{6}
н/о 3/0
[]
+23.8 +17.0 66 +28 +28 душно 1017.5 955.1 +27.4
19 17.08 С 2
{3}
н/о н/о +22.6 +16.2 67 +27 +27 душно 1017.7 955.0
20 17.08 С 1
{2}
н/о н/о +21.2 +16.4 74 +25 +25 комфорт 1017.9 954.9
21 17.08 С 1
{3}
н/о н/о +20.4 +16.3 77 +25 +25 комфорт 1017.8 954.6
22 17.08 С 1
{1}
н/о н/о +20.0 +16.2 79 +24 +24 комфорт 1017.9 954.6
23 17.08 В 1
{2}
н/о н/о +19.5 +16.3 82 +23 +23 комфорт 1018.2 954.8
00 18.08 В 1
{3}
н/о н/о +19.2 +16.2 83 +22 +22 комфорт 1018.3 954.8
01 18.08 В 1
{2}
н/о н/о +19.7 +16.9 84 +24 +24 комфорт 1018.1 954.7
02 18.08 Ю 1
{1}
н/о н/о +19.1 +17.0 88 +22 +22 комфорт 1017.9 954.4
03 18.08 ЮВ 1
{2}
н/о н/о +18.8 +16.8 88 +22 +22 комфорт 1017.4 953.9
04 18.08 ЮВ 1
{2}
н/о н/о +18.9 +17.4 91 +21 +21 комфорт 1017.5 954.0
05 18.08 ЮВ 1
{2}
н/о н/о +18.6 +17.4 93 +21 +21 комфорт 1017.5 953.9
06 18.08 Ю 1 н/о 4/0
[]
+19.1 +17.6 91 +22 +23 комфорт 1017.1 953.7 +18.5

 

Местоположение метеостанции Zurich (Швейцария): широта 47.38 долгота 8.57 высота над уровнем моря 569 м.

В архиве по умолчанию представлена погода в Zurich за последнюю неделю. Архивные данные за месяц целиком и за предыдущие месяцы, начиная с января 2011 года, Вы можете получить, выбрав интересующий диапазон дат из раскрывающегося списка и нажав кнопку "Ввод!".

Внимание! Время в таблицах - всемирное. Для получения местного времени необходимо прибавить поправку, которая в Zurich равна 1 ч.

Смотрите также архив погоды в соседних городах и на ближайших метеорологических станциях:

Погода в Reckenholz (Швейцария) (7 км)
Погода в Zurich-Kloten (Швейцария) (12 км)
Погода в Laegern (Швейцария) (17 км)
Погода в Wadenswil (Швейцария) (20 км)
Погода в Cham (Швейцария) (23 км)
Погода в Taenikon (Швейцария) (27 км)
Погода в Hoernki (Швейцария) (29 км)
Погода в Psi Wuerenlingen (Швейцария) (31 км)
Погода в Mosen (Швейцария) (31 км)
Погода в Einsiedeln (Швейцария) (31 км)

Пояснения к столбцам:

Ветер - указаны скорость ветра в м/с - средняя за 10 мин, порывы в срок и между сроками (в фигурных скобках) и направление, откуда дует ветер: С - северный, СВ - северо-восточный, В - восточный, ЮВ - юго-восточный, Ю - южный, ЮЗ - юго-западный, З - западный, СЗ - северо-западный.
Видимость - горизонтальная дальность видимости в метрах или километрах. При видимости от 1 до 10 км при отсутствии осадков обычно наблюдается дымка, при ухудшении видимости до 1 км и менее - туман. В сухую погоду видимость может ухудшаться дымом, пылью или мглою.
Явления - указаны атмосферные явления, наблюдавшиеся в срок или в последний час перед сроком; фигурными скобками обозначены явления, наблюдавшиеся между сроками (за 1-3 часа до срока); квадратными скобками обозначены град или гололедные отложения с указанием их диаметра в мм.
Облачность - указаны через наклонную черту общая и нижняя облачность в баллах и высота нижней границы облаков в метрах; квадратными скобками обозначены формы облаков: Ci - перистые, Cs - перисто-слоистые, Cc - перисто-кучевые, Ac - высококучевые, As - высокослоистые, Sc - слоисто-кучевые, Ns - слоисто-дождевые, Cu - кучевые, Cb - кучево-дождевые. Подробнее классификацию облаков см. в Атласе облаков (PDF).
T - Температура воздуха - температура, измеренная на высоте 2 м над землей.
Td - Температура точки росы - температура, при понижении до которой содержащийся в воздухе водяной пар достигнет насыщения.
f - Относительная влажность воздуха - влажноcть воздуха, измеренная на высоте 2 м над землей.
Te - Эффективная температура - температура, которую ощущает одетый по сезону человек в тени. Характеристика душности погоды. При расчете учитывается влияние влажности воздуха и скорости ветра на теплоощущения человека.
Tes - Эффективная температура на солнце - температура, которую ощущает человек, с поправкой на солнечный нагрев. Характеристика знойности погоды. Зависит от высоты солнца над горизонтом, облачности и скорости ветра. Ночью, в пасмурную погоду, а также при ветре 12 м/с и более поправка равна нулю.
P - Атмосферное давление - приведенное к уровню моря атмосферное давление.
Po - Атмосферное давление - измеренное на уровне метеостанции атмосферное давление.
Tmin - Минимальная температура - минимум температуры воздуха на высоте 2 м над землей.
Tmax - Максимальная температура - максимум температуры воздуха на высоте 2 м над землей.
R - Количество осадков - Количество выпавших осадков за период времени, мм. При наведении курсора мыши на число - период времени, за который выпало указанное количество осадков.
R24 - Количество осадков - Количество выпавших осадков за 24 часа, мм.
S - Снежный покров - Высота снежного покрова, см. При наведении курсора мыши на число - состояние снежного покрова и степень покрытия местности в баллах.